TimeAKST,TemperatureF,Dew PointF,Humidity,Sea Level PressureIn,VisibilityMPH,Wind Direction,Wind SpeedMPH,Gust SpeedMPH,PrecipitationIn,Events,Conditions,WindDirDegrees,DateUTC
12:53 AM,27.0,24.1,89,29.61,10.0,WSW,3.5,-,N/A,,Mostly Cloudy,250,2012-02-17 09:53:00
1:53 AM,23.0,21.0,92,29.62,10.0,Calm,Calm,-,N/A,,Mostly Cloudy,0,2012-02-17 10:53:00
3:53 AM,23.0,19.9,88,29.63,10.0,Calm,Calm,-,N/A,,Mostly Cloudy,0,2012-02-17 12:53:00
4:53 AM,25.0,21.9,88,29.64,10.0,Calm,Calm,-,N/A,,Mostly Cloudy,0,2012-02-17 13:53:00
5:53 AM,23.0,19.9,88,29.64,10.0,Calm,Calm,-,N/A,,Mostly Cloudy,0,2012-02-17 14:53:00
6:53 AM,23.0,21.0,92,29.65,10.0,Calm,Calm,-,N/A,,Mostly Cloudy,0,2012-02-17 15:53:00
7:53 AM,24.1,21.0,88,29.65,10.0,Calm,Calm,-,N/A,,Mostly Cloudy,0,2012-02-17 16:53:00
8:53 AM,25.0,21.9,88,29.67,10.0,Calm,Calm,-,N/A,,Overcast,0,2012-02-17 17:53:00
9:53 AM,26.1,21.9,84,29.68,10.0,Calm,Calm,-,N/A,,Overcast,0,2012-02-17 18:53:00
10:53 AM,28.9,23.0,78,29.69,10.0,Calm,Calm,-,N/A,,Overcast,0,2012-02-17 19:53:00
11:53 AM,30.0,24.1,79,29.71,10.0,Calm,Calm,-,N/A,,Overcast,0,2012-02-17 20:53:00
12:53 PM,32.0,25.0,75,29.71,7.0,Calm,Calm,-,0.00,Snow,Light Snow,0,2012-02-17 21:53:00
1:53 PM,32.0,23.0,69,29.72,10.0,Calm,Calm,-,0.00,,Overcast,0,2012-02-17 22:53:00
2:53 PM,34.0,23.0,64,29.73,10.0,Calm,Calm,-,N/A,,Mostly Cloudy,0,2012-02-17 23:53:00
3:53 PM,35.1,23.0,61,29.73,10.0,Calm,Calm,-,N/A,,Overcast,0,2012-02-18 00:53:00
4:53 PM,33.1,24.1,70,29.74,10.0,Calm,Calm,-,N/A,,Overcast,0,2012-02-18 01:53:00
5:53 PM,32.0,24.1,73,29.75,10.0,Calm,Calm,-,N/A,,Overcast,0,2012-02-18 02:53:00
6:53 PM,32.0,24.1,73,29.75,10.0,Calm,Calm,-,N/A,,Mostly Cloudy,0,2012-02-18 03:53:00
7:53 PM,26.1,21.9,84,29.75,10.0,Calm,Calm,-,N/A,,Scattered Clouds,0,2012-02-18 04:53:00
8:53 PM,19.0,16.0,88,29.75,10.0,ENE,3.5,-,N/A,,Clear,60,2012-02-18 05:53:00
9:53 PM,21.0,17.1,85,29.75,10.0,Calm,Calm,-,N/A,,Clear,0,2012-02-18 06:53:00
10:53 PM,19.0,17.1,92,29.75,9.0,East,3.5,-,N/A,,Clear,90,2012-02-18 07:53:00
11:53 PM,19.0,16.0,88,29.74,10.0,Calm,Calm,-,N/A,,Partly Cloudy,0,2012-02-18 08:53:00